[[{"header":{"parameterUnit":"m.s-1","parameterCategory":1,"la1":30.2991,"la2":30.254,"lo1":-89.0895,"lo2":-89.0444,"dy":0.0017,"dx":0.0017,"nx":28,"ny":28,"refTime":"2025-04-25T21:00:00:Z","depth":0,"parameterNumber":2,"parameterNumberName":"U-component_of_WINDS"},"data":[0,0,0,0,0,0,0,0,0,0,0,0,0,0,0,0,0,0,0,0,0,0,0,0,0,0,0,0,0,0,0,0,0,0,0,0,0,0,0,0,0,0,0,0,0,0,0,0,0,0,0,0,0,0,0,0,0,0,1.083,1.083,0,1.0874,1.0875,1.0875,1.0865,1.0864,1.0863,1.0862,1.0907,1.0909,1.0911,0,0,0,0,0,0,0,0,0,0,0,0,0,1.0736,1.0737,1.083,1.083,1.0831,1.0874,1.0875,1.0875,1.0865,1.0864,1.0863,1.0862,1.0907,1.0909,1.0912,0,0,0,0,0,0,0,0,0,0,0,0,0,1.0778,1.0738,1.083,1.0831,1.0832,1.0874,1.0875,1.0875,1.0865,1.0864,1.0863,1.0861,1.0906,1.0909,1.0912,1.0956,0,0,1.0921,1.0922,0,0,0,0,0,0,0,0,1.0775,1.0781,1.083,1.0831,1.0832,1.0863,1.0858,1.0902,1.0865,1.0852,1.0862,1.0861,1.0894,1.0897,1.0909,1.0958,1.096,1.0921,1.0923,1.0924,1.0925,0,0,0,0,0,0,0,1.0773,1.0779,1.0847,1.0831,1.0832,1.0829,1.0834,1.0866,1.088,1.0853,1.0853,1.0858,1.0894,1.0906,1.091,1.096,1.0921,1.0924,1.0926,1.0927,1.1047,1.1048,0,0,0,0,0,0,1.0769,1.0777,1.0846,1.0849,1.08,1.0832,1.0837,1.0854,1.0879,1.0882,1.0859,1.0858,1.0901,1.0906,1.0911,1.0963,1.0924,1.0927,1.0929,1.1045,1.1047,1.1049,0,0,0,0,0,0,1.0767,1.0775,1.0844,1.0813,1.0821,1.0835,1.0854,1.0856,1.0867,1.0884,1.0886,1.0869,1.09,1.0907,1.0944,1.0965,1.0928,1.0931,1.1044,1.1046,1.1048,1.1069,0,0,0,0,0,0,1.0764,1.0775,1.0792,1.0813,1.0823,1.0877,1.0855,1.0857,1.0873,1.0871,1.0893,1.0896,1.09,1.094,1.0947,1.0968,1.0933,1.1042,1.1045,1.1047,1.1066,1.1072,1.1076,0,0,0,0,0,1.0761,1.0796,1.0793,1.0801,1.0844,1.0878,1.0884,1.0888,1.0874,1.0891,1.0902,1.0895,1.0962,1.0944,1.0952,1.0974,1.1041,1.1044,1.1047,1.1064,1.1071,1.1076,0,0,0,0,0,0,1.0776,1.0799,1.0795,1.0838,1.0856,1.0876,1.0898,1.0894,1.0917,1.0914,1.0918,1.0923,1.0961,1.0972,1.0952,1.1018,1.0999,1.1004,1.101,1.1016,1.102,1.1017,1.0936,0,0,0,0,0,1.0785,1.0811,1.0829,1.0865,1.0874,1.0884,1.0899,1.0901,1.092,1.0927,1.094,1.0959,1.0984,1.1,1.1024,1.1068,1.1072,1.1087,1.1092,1.1096,1.11,1.1123,1.113,1.1059,1.1059,1.1059,0,0,1.0802,1.0818,1.0834,1.0868,1.0882,1.0909,1.0891,1.092,1.0939,1.0932,1.0968,1.0978,1.0999,1.104,1.1058,1.1049,1.112,1.11,1.1102,1.1105,1.1127,1.1134,1.114,1.1061,1.1061,1.106,0,0,1.0848,1.0862,1.0894,1.0908,1.093,1.0937,1.0944,1.0965,1.0971,1.1008,1.1002,1.1026,1.1069,1.1084,1.1097,1.1147,1.1142,1.1155,1.1179,1.1202,1.1208,1.1213,1.123,1.1237,1.1159,1.1159,1.1159,0,1.0867,1.0906,1.091,1.0939,1.0954,1.0949,1.098,1.0994,1.1023,1.1033,1.1023,1.1076,1.109,1.1134,1.1146,1.1157,1.1166,1.1152,1.1207,1.1212,1.1216,1.1233,1.124,1.1161,1.116,1.116,1.116,0,1.0929,1.0956,1.0979,1.1006,1.1024,1.1054,1.1062,1.1079,1.1079,1.1087,1.1124,1.114,1.1167,1.1177,1.1177,1.1221,1.1215,1.1206,1.1187,1.1224,1.124,1.1247,1.1163,1.1162,1.1162,1.1161,0,0,1.0985,1.1014,1.1022,1.1034,1.1058,1.1079,1.1109,1.1135,1.115,1.1169,1.1194,1.1231,1.1222,1.1237,1.1239,1.1259,1.1297,1.1247,1.1248,1.1255,1.1346,1.1352,1.136,1.1294,1.1295,1.1296,1.1344,0,1.1032,1.1085,1.1089,1.1136,1.1161,1.1156,1.1182,1.1199,1.1207,1.1229,1.1237,1.1263,1.125,1.1259,1.1279,1.1288,1.1315,1.1285,1.1317,1.1318,1.1311,1.1368,1.1375,1.1419,1.135,1.1351,1.1352,0,1.1095,1.1116,1.1166,1.1185,1.1196,1.1219,1.1243,1.1265,1.1284,1.1288,1.1305,1.1303,1.1333,1.1314,1.1355,1.1334,1.1348,1.1354,1.1356,1.1359,1.1337,1.1372,1.1434,1.144,1.1362,1.1361,1.136,0,1.113,1.1172,1.1207,1.1217,1.1241,1.1257,1.1268,1.1286,1.1301,1.1322,1.1332,1.1356,1.1369,1.1388,1.1393,1.1379,1.1434,1.1415,1.1438,1.1438,1.145,1.1449,1.1514,1.1459,1.1459,1.1459,1.1459,0,1.1182,1.1213,1.1223,1.1245,1.1278,1.1282,1.1316,1.1325,1.1341,1.1364,1.1361,1.1383,1.1388,1.1411,1.1415,1.1449,1.1455,1.1459,1.1459,1.1459,1.1458,1.1467,1.1464,1.1461,1.146,1.146,1.146,0,1.1228,1.1236,1.1274,1.1293,1.1299,1.1323,1.1339,1.1359,1.1367,1.1396,1.1403,1.1414,1.1441,1.1448,1.1479,1.1482,1.1521,1.1519,1.1515,1.1515,1.1537,1.1535,1.161,1.162,1.1558,1.1559,1.156,0,1.1261,1.1284,1.1306,1.1321,1.1332,1.1357,1.1373,1.1377,1.1393,1.1417,1.1434,1.146,1.1481,1.1523,1.1534,1.1558,1.1557,1.1581,1.156,1.1559,1.1556,1.1555,1.1557,1.1585,1.1586,1.1586,1.1587,0,1.1318,1.1321,1.1343,1.1367,1.1386,1.1405,1.1423,1.1436,1.1443,1.1461,1.1488,1.1504,1.1536,1.1562,1.1586,1.1597,1.1593,1.1593,1.16,1.1599,1.1596,1.1598,1.1525,1.1592,1.1591,1.1591,1.1591,1.159,1.1358,1.1378,1.1396,1.1422,1.1436,1.1453,1.1473,1.1483,1.1505,1.1531,1.1533,1.1562,1.158,1.1612,1.1624,1.1646,1.1639,1.1648,1.1651,1.1653,1.1654,1.1592,1.1651,1.165,1.165,1.165,1.165,0,1.1414,1.1426,1.1449,1.1475,1.1494,1.1489,1.1509,1.1525,1.1551,1.1568,1.1589,1.1619,1.1644,1.1657,1.1681,1.1697,1.1695,1.1703,1.1702,1.1704,1.166,1.1652,1.1703,1.1703,1.1703,1.1703,1.1703,1.1703,1.1446,1.148,1.1485,1.1525,1.1537,1.1565,1.1577,1.1592,1.1606,1.164,1.166,1.1669,1.1684,1.1709,1.1731,1.1734,1.1743,1.1752,1.1754,1.1713,1.1707,1.1702,1.1694,1.1754,1.1754,1.1796,1.1796,1.1796]},{"header":{"parameterUnit":"m.s-1","parameterCategory":1,"la1":30.2991,"la2":30.254,"lo1":-89.0895,"lo2":-89.0444,"dy":0.0017,"dx":0.0017,"nx":28,"ny":28,"refTime":"2025-04-25T21:00:00:Z","depth":0,"parameterNumber":3,"parameterNumberName":"V-component_of_WINDS"},"data":[0,0,0,0,0,0,0,0,0,0,0,0,0,0,0,0,0,0,0,0,0,0,0,0,0,0,0,0,0,0,0,0,0,0,0,0,0,0,0,0,0,0,0,0,0,0,0,0,0,0,0,0,0,0,0,0,0,0,1.1989,1.199,0,1.2037,1.2038,1.2038,1.203,1.2029,1.2028,1.2027,1.2073,1.2075,1.2076,0,0,0,0,0,0,0,0,0,0,0,0,0,1.1887,1.1889,1.1989,1.199,1.1991,1.2037,1.2038,1.2038,1.203,1.2029,1.2028,1.2027,1.2072,1.2074,1.2077,0,0,0,0,0,0,0,0,0,0,0,0,0,1.1933,1.189,1.1989,1.1992,1.1993,1.2037,1.2038,1.2038,1.203,1.2029,1.2027,1.2026,1.2071,1.2074,1.2077,1.212,0,0,1.2086,1.2087,0,0,0,0,0,0,0,0,1.193,1.1937,1.1991,1.1992,1.1993,1.2026,1.2018,1.2066,1.203,1.2016,1.2027,1.2026,1.2058,1.2062,1.2073,1.2122,1.2124,1.2086,1.2088,1.2089,1.209,0,0,0,0,0,0,0,1.1927,1.1934,1.2008,1.1992,1.1993,1.199,1.1995,1.2027,1.2043,1.2017,1.2016,1.2022,1.2058,1.2071,1.2074,1.2125,1.2086,1.2089,1.2091,1.2092,1.2211,1.2213,0,0,0,0,0,0,1.1924,1.1932,1.2007,1.201,1.1958,1.1992,1.1998,1.2017,1.2043,1.2046,1.2023,1.2022,1.2066,1.2071,1.2076,1.2129,1.2089,1.2092,1.2094,1.221,1.2211,1.2213,0,0,0,0,0,0,1.1921,1.193,1.2005,1.1971,1.198,1.1996,1.2016,1.2018,1.2031,1.2048,1.205,1.2034,1.2065,1.2072,1.2109,1.213,1.2094,1.2096,1.2208,1.221,1.2212,1.2234,0,0,0,0,0,0,1.1919,1.193,1.1947,1.1971,1.1982,1.2039,1.2018,1.202,1.2036,1.2035,1.2058,1.206,1.2065,1.2105,1.2112,1.2133,1.2099,1.2206,1.2209,1.2212,1.2231,1.2236,1.2241,0,0,0,0,0,1.1915,1.1951,1.1948,1.1957,1.2004,1.204,1.2046,1.2051,1.2038,1.2055,1.2066,1.206,1.2126,1.2109,1.2117,1.2139,1.2205,1.2208,1.2211,1.2229,1.2235,1.2241,0,0,0,0,0,0,1.1928,1.1954,1.1951,1.1996,1.2016,1.2038,1.206,1.2057,1.208,1.2078,1.2082,1.2088,1.2126,1.2136,1.2116,1.2182,1.2164,1.2169,1.2175,1.2181,1.2185,1.2182,1.2101,0,0,0,0,0,1.1936,1.1964,1.1985,1.2022,1.2032,1.2045,1.206,1.2063,1.2083,1.2091,1.2104,1.2123,1.2148,1.2165,1.2189,1.2232,1.2237,1.2252,1.2256,1.226,1.2264,1.2288,1.2294,1.2223,1.2223,1.2223,0,0,1.1953,1.1971,1.1988,1.2025,1.2041,1.2069,1.2052,1.2082,1.2102,1.2095,1.2132,1.2142,1.2163,1.2204,1.2223,1.2214,1.2285,1.2264,1.2267,1.2269,1.2292,1.2298,1.2304,1.2225,1.2225,1.2225,0,0,1.1998,1.2015,1.2048,1.2064,1.2088,1.2096,1.2104,1.2127,1.2134,1.2171,1.2166,1.2189,1.2233,1.2248,1.2261,1.2312,1.2307,1.2319,1.2344,1.2367,1.2372,1.2377,1.2395,1.2402,1.2323,1.2323,1.2323,0,1.2016,1.2059,1.2065,1.2096,1.2112,1.2108,1.2141,1.2155,1.2186,1.2196,1.2186,1.224,1.2254,1.2299,1.2311,1.2322,1.233,1.2317,1.2371,1.2376,1.2381,1.2398,1.2405,1.2325,1.2325,1.2324,1.2324,0,1.208,1.211,1.2133,1.2164,1.2183,1.2214,1.2224,1.2241,1.2242,1.225,1.2288,1.2304,1.2331,1.2342,1.2342,1.2386,1.238,1.237,1.2352,1.2389,1.2405,1.2412,1.2327,1.2326,1.2326,1.2326,0,0,1.2136,1.2169,1.2178,1.2192,1.2217,1.224,1.227,1.2298,1.2314,1.2334,1.236,1.2396,1.2387,1.2403,1.2404,1.2424,1.2463,1.2412,1.2413,1.2421,1.2512,1.252,1.2527,1.246,1.2461,1.2462,1.2511,0,1.2184,1.224,1.2246,1.2296,1.2323,1.2318,1.2345,1.2363,1.2372,1.2395,1.2403,1.2429,1.2416,1.2425,1.2445,1.2454,1.2481,1.2451,1.2483,1.2484,1.2479,1.2536,1.2544,1.2589,1.2517,1.2518,1.2519,0,1.2248,1.2272,1.2325,1.2347,1.2358,1.2383,1.2408,1.2431,1.245,1.2455,1.2472,1.2471,1.2501,1.2481,1.2522,1.2501,1.2514,1.2521,1.2523,1.2527,1.2504,1.2541,1.2604,1.2611,1.2529,1.2528,1.2527,0,1.2284,1.2329,1.2366,1.2378,1.2405,1.2422,1.2433,1.2452,1.2468,1.249,1.25,1.2525,1.2538,1.2556,1.2561,1.2546,1.2603,1.2583,1.2607,1.2607,1.262,1.2619,1.2686,1.2627,1.2627,1.2627,1.2627,0,1.2338,1.237,1.2383,1.2406,1.2442,1.2447,1.2482,1.2492,1.2509,1.2533,1.253,1.2552,1.2557,1.258,1.2584,1.2618,1.2624,1.2628,1.2629,1.2629,1.2628,1.2638,1.2635,1.2629,1.2628,1.2628,1.2628,0,1.2385,1.2394,1.2435,1.2457,1.2463,1.2488,1.2506,1.2528,1.2536,1.2566,1.2573,1.2585,1.2612,1.2619,1.265,1.2653,1.2693,1.269,1.2687,1.2687,1.271,1.2708,1.2786,1.2796,1.2731,1.2731,1.2732,0,1.2419,1.2444,1.2468,1.2485,1.2498,1.2524,1.2541,1.2546,1.2563,1.2588,1.2606,1.2633,1.2654,1.2697,1.2708,1.2732,1.273,1.2755,1.2733,1.2733,1.2731,1.2729,1.2732,1.276,1.276,1.2761,1.2762,0,1.2478,1.2482,1.2507,1.2533,1.2554,1.2574,1.2594,1.2607,1.2615,1.2635,1.2663,1.268,1.2712,1.2738,1.2762,1.2773,1.2768,1.2768,1.2775,1.2776,1.2773,1.2775,1.2699,1.2767,1.2766,1.2766,1.2765,1.2765,1.252,1.2542,1.2563,1.2591,1.2606,1.2625,1.2646,1.2657,1.2681,1.2709,1.271,1.274,1.2758,1.279,1.2802,1.2825,1.2817,1.2827,1.2829,1.2832,1.2834,1.2769,1.2829,1.2829,1.2829,1.2828,1.2828,0,1.258,1.2593,1.2618,1.2647,1.2668,1.2663,1.2684,1.2702,1.2729,1.2747,1.2769,1.28,1.2826,1.2838,1.2863,1.2879,1.2877,1.2885,1.2884,1.2887,1.284,1.2831,1.2886,1.2886,1.2886,1.2886,1.2886,1.2886,1.2613,1.2651,1.2656,1.2701,1.2713,1.2744,1.2757,1.2773,1.2788,1.2824,1.2845,1.2853,1.2869,1.2894,1.2917,1.292,1.2929,1.2938,1.294,1.2896,1.289,1.2884,1.2877,1.294,1.294,1.2985,1.2985,1.2985]}]]